074  
ASUS44 KMEG 232310  
RWRMEG  
MEMPHIS CWA HOURLY WEATHER ROUNDUP  
NATIONAL WEATHER SERVICE MEMPHIS TN  
600 PM CDT SAT MAR 23 2019  
   
..WEST TENNESSEE
 
 
 
CITY SKY/WX TMP DP RH WIND PRES REMARKS
 
MEMPHIS INTL PTSUNNY 66 32 28 VRB3 30.17F  
NWS MEMPHIS N/A 70 N/A N/A MISG N/A  
JACKSON FAIR 67 32 27 VRB6 30.20R  
COVINGTON SUNNY 68 36 30 CALM 30.18S  
SOMERVILLE SUNNY 68 34 28 S5 30.17S  
BOLIVAR SUNNY 66 30 26 CALM 30.18S  
LEXINGTON SUNNY 68 21 17 E5 30.19S  
SELMER SUNNY 68 28 22 S6 30.18S  
DYERSBURG FAIR 67 39 35 E3 30.21S  
UNION CITY SUNNY 64 36 34 S3 30.20S  
PARIS SUNNY 63 25 23 NE5 30.21R  
HUNTINGDON SUNNY 66 27 22 SE5 30.21R  
 
   
..EASTERN ARKANSAS
 
 
 
CITY SKY/WX TMP DP RH WIND PRES REMARKS
 
JONESBORO FAIR 66 43 43 E8 30.15F  
BATESVILLE CLOUDY 64 36 35 E8 30.14F  
NEWPORT N/A 64 41 42 E6 30.13F  
WALNUT RIDGE FAIR 64 41 42 E6 30.15F  
BLYTHEVILLE FAIR 66 38 35 NE8 30.19F  
SEARCY FAIR 68 42 38 E7 30.13R  
STUTTGART FAIR 71 39 31 SE13 30.13S  
PINE BLUFF FAIR 69 42 37 S9 30.11F  
MONTICELLO FAIR 73 40 30 SE5 30.11F  
 
   
..NORTH MISSISSIPPI
 
 
 
CITY SKY/WX TMP DP RH WIND PRES REMARKS
 
TUPELO FAIR 71 31 22 SE6 30.17S  
OXFORD FAIR 68 32 26 SE3 30.18S  
BATESVILLE FAIR 70 37 30 CALM 30.15S  
OLIVE BRANCH PTSUNNY 68 32 26 SE9 30.17F  
TUNICA N/A 68 41 37 SE6 30.14F  
CLARKSDALE SUNNY 70 36 28 E6 30.13F  
CORINTH FAIR 68 28 22 E7 30.18S  
GREENWOOD FAIR 73 35 25 SE8 30.14S  
COLUMBUS FAIR 71 37 29 E3 30.17S  
STARKVILLE FAIR 68 36 30 SE3 30.19R  
GOLDEN TRIANGL FAIR 69 40 34 S5 30.18S  
 
   
..SOUTHEAST MISSOURI
 
 
 
CITY SKY/WX TMP DP RH WIND PRES REMARKS
 
KENNETT FAIR 64 37 36 E8 30.17F  
MALDEN FAIR 63 37 39 E3 30.21F  
WEST PLAINS CLOUDY 51 46 83 E8 30.15F  
POPLAR BLUFF CLOUDY 59 39 47 E7 30.18F  
CAPE GIRARDEAU FAIR 60 33 36 CALM 30.23S  
 
   
..NORTHWEST ALABAMA
 
 
 
CITY SKY/WX TMP DP RH WIND PRES REMARKS
 
MUSCLE SHOALS FAIR 64 39 39 E6 30.22R  
 
   
..MIDDLE TENNESSEE
 
 
 
CITY SKY/WX TMP DP RH WIND PRES REMARKS
 
NASHVILLE PTSUNNY 62 21 20 N6 30.23S  
CLARKSVILLE FAIR 60 23 24 E6 30.22F  
DICKSON CLEAR 61 16 17 CALM 30.21R  
COLUMBIA SUNNY 63 19 19 CALM 30.20S  
LAWRENCEBURG CLEAR 63 23 22 CALM 30.21R  
LEWISBURG CLEAR 61 28 29 CALM 30.22R  
 
   
..WESTERN KENTUCKY
 
 
 
CITY SKY/WX TMP DP RH WIND PRES REMARKS
 
PADUCAH FAIR 60 29 30 NE8 30.22R  
FORT CAMPBELL FAIR 59 24 25 E7 30.22S  
 
   
..CENTRAL ARKANSAS
 
 
 
CITY SKY/WX TMP DP RH WIND PRES REMARKS
 
LITTLE ROCK CLOUDY 67 40 37 SE12 30.10F  
 
SKY/WX REPORTED AS FAIR MEANS FEW OR NO CLOUDS BELOW  
12 THOUSAND FEET.  
 
 
 
CLICK HERE TO GO TO PREVIOUS BULLETINS.

The Nexlab TN Page
The Nexlab MS Page
The Nexlab AR Page Main Text Page